Sugar Land, TX

6:18 PM CST on February 24, 2017 (GMT -0600)
Sugar Land Municipal-Hull

Weather History for KSGR - March, 2014

Change the Weather History Date:

Sunday, March 2, 2014

  Actual Average Record
Temperature  
Mean Temperature 54 °F -  
Max Temperature 75 °F 68 °F 91 °F (2007)
Min Temperature 33 °F 50 °F 22 °F (1980)
Degree Days  
Heating Degree Days 10    
Growing Degree Days 4 (Base 50)    
Moisture  
Dew Point 57 °F    
Average Humidity 85    
Maximum Humidity 90    
Minimum Humidity 74    
Precipitation  
Precipitation 0.02 in - - ()
Sea Level Pressure  
Sea Level Pressure 29.99 in    
Wind  
Wind Speed 13 mph (South)    
Max Wind Speed 25 mph    
Max Gust Speed 34 mph    
Visibility 10 miles    
Events Rain    
Averages and records for this station are not official NWS values.
T = Trace of Precipitation, MM = Missing Value Source: NWS Daily Summary

Daily Weather History Graph

Daily Weather History Graph

Search for Another Location

Airport or City:

Trip Planner

Search our weather history database for the weather conditions in past years. The results will help you decide how hot, cold, wet, or windy it might be!

Date:

Astronomy

Mar. 02, 2014 Rise Set
Actual Time 6:47 AM CST 6:22 PM CST
Civil Twilight 6:23 AM CST 6:46 PM CST
Nautical Twilight 5:55 AM CST 7:14 PM CST
Astronomical Twilight 5:28 AM CST 7:41 PM CST
Moon 7:28 AM CST (3/2) 8:08 PM CST (3/2)
Length of Visible Light 12h 23m
Length of Day
11h 35m
Waxing Crescent, 3% of the Moon is Illuminated
Mar 2
Waxing Crescent
Mar 8
First Quarter
Mar 16
Full
Mar 23
Last Quarter
Mar 30
New

Hourly Weather History & Observations

Time (CST) Temp. Windchill Dew Point Humidity Pressure Visibility Wind Dir Wind Speed Gust Speed Precip Events Conditions
12:53 AM 70.0 °F - 66.0 °F 87% 30.00 in 10.0 mi SSE 8.1 mph - N/A   Overcast
1:14 AM 70.0 °F - 66.0 °F 87% 29.99 in 10.0 mi SSE 9.2 mph - N/A   Overcast
1:24 AM 70.0 °F - 66.0 °F 87% 29.99 in 10.0 mi SSE 8.1 mph - N/A   Overcast
1:53 AM 70.0 °F - 66.0 °F 87% 29.99 in 10.0 mi SSE 9.2 mph - N/A   Overcast
2:53 AM 71.1 °F - 66.9 °F 87% 29.97 in 10.0 mi South 13.8 mph - N/A   Overcast
3:50 AM 71.6 °F - 66.2 °F 83% 29.96 in 10.0 mi South 11.5 mph - N/A   Overcast
3:53 AM 71.1 °F - 66.9 °F 87% 29.96 in 10.0 mi SSE 12.7 mph - N/A   Overcast
4:53 AM 71.1 °F - 66.9 °F 87% 29.96 in 10.0 mi SSE 12.7 mph - N/A   Overcast
5:53 AM 71.1 °F - 68.0 °F 90% 29.96 in 10.0 mi South 15.0 mph - N/A   Overcast
6:53 AM 72.0 °F - 68.0 °F 87% 29.97 in 10.0 mi South 12.7 mph - N/A   Overcast
7:41 AM 72.0 °F - 68.0 °F 87% 29.98 in 10.0 mi South 11.5 mph - N/A   Overcast
7:53 AM 72.0 °F - 68.0 °F 87% 29.99 in 10.0 mi SSE 11.5 mph - N/A   Overcast
8:53 AM 73.0 °F - 69.1 °F 87% 30.00 in 10.0 mi South 12.7 mph - N/A   Overcast
9:22 AM 73.0 °F - 68.0 °F 84% 30.00 in 10.0 mi South 11.5 mph - N/A   Overcast
9:53 AM 73.9 °F - 68.0 °F 82% 30.00 in 10.0 mi South 13.8 mph - N/A   Overcast
10:53 AM 75.0 °F - 68.0 °F 79% 30.01 in 10.0 mi South 16.1 mph 25.3 mph N/A   Overcast
11:53 AM 73.9 °F - 68.0 °F 82% 30.00 in 10.0 mi South 15.0 mph - 0.00 in   Overcast
12:17 PM 75.0 °F - 66.9 °F 76% 29.97 in 10.0 mi SSE 15.0 mph - N/A   Overcast
12:48 PM 73.4 °F - 66.2 °F 78% 29.96 in 10.0 mi South 13.8 mph 24.2 mph N/A   Overcast
12:53 PM 75.0 °F - 66.9 °F 76% 29.96 in 10.0 mi South 15.0 mph - N/A   Overcast
1:46 PM 75.9 °F - 68.0 °F 76% 29.93 in 10.0 mi South 10.4 mph - N/A   Overcast
1:53 PM 75.9 °F - 66.9 °F 74% 29.93 in 10.0 mi South 13.8 mph - N/A   Overcast
2:53 PM 75.0 °F - 66.9 °F 76% 29.92 in 10.0 mi South 12.7 mph - 0.00 in   Overcast
3:53 PM 73.0 °F - 69.1 °F 87% 29.91 in 10.0 mi South 11.5 mph - 0.00 in   Overcast
4:00 PM 73.0 °F - 69.1 °F 87% 29.90 in 10.0 mi South 11.5 mph - N/A   Overcast
4:12 PM 73.0 °F - 69.1 °F 87% 29.90 in 10.0 mi South 11.5 mph - N/A   Overcast
4:33 PM 73.0 °F - 69.1 °F 87% 29.90 in 10.0 mi SSW 8.1 mph - N/A   Overcast
4:42 PM 59.0 °F - 54.0 °F 83% 29.91 in 10.0 mi NW 19.6 mph 29.9 mph N/A   Overcast
4:48 PM 57.2 °F - 51.8 °F 82% 29.92 in 10.0 mi NW 19.6 mph 29.9 mph N/A   Overcast
4:49 PM 55.4 °F - 51.8 °F 88% 29.93 in 10.0 mi NW 19.6 mph - N/A   Overcast
4:53 PM 55.0 °F - 51.1 °F 86% 29.93 in 10.0 mi NW 21.9 mph 28.8 mph N/A   Overcast
5:53 PM 42.1 °F 32.1 °F 39.0 °F 89% 30.00 in 7.0 mi NNW 25.3 mph 34.5 mph 0.00 in Rain Light Rain
6:53 PM 37.9 °F 27.9 °F 35.1 °F 89% 30.06 in 9.0 mi NNW 19.6 mph 32.2 mph 0.02 in Rain Light Rain
7:12 PM 37.0 °F 25.6 °F 33.1 °F 86% 30.06 in 10.0 mi NNW 24.2 mph 33.4 mph 0.00 in Rain Light Rain
7:19 PM 37.0 °F 25.9 °F 33.1 °F 86% 30.07 in 10.0 mi NNW 23.0 mph 33.4 mph 0.00 in Rain Light Rain
7:53 PM 36.0 °F 25.6 °F 33.1 °F 89% 30.09 in 9.0 mi NNW 18.4 mph - 0.00 in Rain Light Rain
8:53 PM 34.0 °F 24.6 °F 30.9 °F 89% 30.11 in 10.0 mi North 13.8 mph 24.2 mph 0.00 in   Overcast
9:15 PM 35.1 °F 26.4 °F 32.0 °F 89% 30.11 in 10.0 mi North 12.7 mph 21.9 mph 0.00 in   Overcast
9:53 PM 36.0 °F 26.0 °F 32.0 °F 86% 30.13 in 10.0 mi North 17.3 mph - 0.00 in   Overcast
10:16 PM 36.0 °F 26.7 °F 32.0 °F 86% 30.14 in 10.0 mi NNW 15.0 mph 26.5 mph N/A   Overcast
10:53 PM 35.1 °F 25.2 °F 30.9 °F 85% 30.14 in 10.0 mi NNW 16.1 mph 24.2 mph N/A   Overcast
11:53 PM 33.1 °F 21.2 °F 28.9 °F 85% 30.17 in 10.0 mi NNW 20.7 mph 28.8 mph N/A   Overcast